Time,TemperatureF,DewpointF,PressureIn,WindDirection,WindDirectionDegrees,WindSpeedMPH,WindSpeedGustMPH,Humidity,HourlyPrecipIn,Conditions,Clouds,dailyrainin,SoftwareType,DateUTC
2013-06-14 00:01:00,59.5,55.4,29.83,NW,315,0.0,0.0,86,0.00,,,1.22,WUHU21623XXSP,2013-06-14 04:01:00,
2013-06-14 00:06:00,59.5,55.4,29.83,NW,315,0.0,0.0,86,0.00,,,0.00,WUHU21623XXSP,2013-06-14 04:06:00,
2013-06-14 00:11:00,59.5,55.4,29.83,NW,315,0.0,0.0,86,0.00,,,0.00,WUHU21623XXSP,2013-06-14 04:11:00,
2013-06-14 00:16:00,59.4,55.4,29.83,NW,315,0.0,0.0,86,0.00,,,0.00,WUHU21623XXSP,2013-06-14 04:16:00,
2013-06-14 00:21:00,59.4,55.2,29.84,NW,315,0.0,0.0,86,0.00,,,0.00,WUHU21623XXSP,2013-06-14 04:21:00,
2013-06-14 00:26:00,59.4,55.2,29.84,NW,315,0.0,0.0,86,0.00,,,0.00,WUHU21623XXSP,2013-06-14 04:26:00,
2013-06-14 00:31:00,59.2,55.2,29.84,NW,315,0.0,0.0,86,0.00,,,0.00,WUHU21623XXSP,2013-06-14 04:31:00,
2013-06-14 00:36:00,59.2,55.0,29.84,NW,315,0.0,0.0,86,0.00,,,0.00,WUHU21623XXSP,2013-06-14 04:36:00,
2013-06-14 00:41:00,59.2,55.0,29.84,NW,315,0.0,0.0,86,0.00,,,0.00,WUHU21623XXSP,2013-06-14 04:41:00,
2013-06-14 00:46:00,59.2,55.0,29.84,NW,315,0.0,0.0,86,0.00,,,0.00,WUHU21623XXSP,2013-06-14 04:46:00,
2013-06-14 00:51:00,59.2,55.0,29.85,NW,315,0.0,0.0,86,0.00,,,0.00,WUHU21623XXSP,2013-06-14 04:51:00,
2013-06-14 00:56:00,59.2,55.0,29.85,NW,315,0.0,0.0,86,0.00,,,0.00,WUHU21623XXSP,2013-06-14 04:56:00,
2013-06-14 01:01:00,59.2,55.0,29.85,NW,315,0.0,0.0,86,0.00,,,0.00,WUHU21623XXSP,2013-06-14 05:01:00,
2013-06-14 01:06:00,59.2,55.0,29.85,NW,315,0.0,0.0,86,0.00,,,0.00,WUHU21623XXSP,2013-06-14 05:06:00,
2013-06-14 01:11:00,59.4,55.0,29.85,NW,315,0.0,0.0,86,0.00,,,0.00,WUHU21623XXSP,2013-06-14 05:11:00,
2013-06-14 01:16:00,59.4,55.2,29.85,NW,315,0.0,0.0,86,0.00,,,0.00,WUHU21623XXSP,2013-06-14 05:16:00,
2013-06-14 01:21:00,59.4,55.2,29.85,NW,315,0.0,0.0,86,0.00,,,0.00,WUHU21623XXSP,2013-06-14 05:21:00,
2013-06-14 01:26:00,59.4,55.2,29.85,NW,315,0.0,0.0,86,0.00,,,0.00,WUHU21623XXSP,2013-06-14 05:26:00,
2013-06-14 01:31:00,59.2,55.0,29.85,NW,315,0.0,0.0,86,0.00,,,0.00,WUHU21623XXSP,2013-06-14 05:31:00,
2013-06-14 01:36:00,58.8,54.6,29.85,NW,315,0.0,0.0,86,0.00,,,0.00,WUHU21623XXSP,2013-06-14 05:36:00,
2013-06-14 01:41:00,58.8,54.6,29.85,NW,315,0.0,0.0,86,0.00,,,0.00,WUHU21623XXSP,2013-06-14 05:41:00,
2013-06-14 01:46:00,58.8,54.3,29.85,NW,315,0.0,0.0,85,0.00,,,0.00,WUHU21623XXSP,2013-06-14 05:46:00,
2013-06-14 01:51:00,58.8,54.3,29.85,NNW,337,0.0,0.0,85,0.00,,,0.00,WUHU21623XXSP,2013-06-14 05:51:00,
2013-06-14 01:56:00,58.8,54.3,29.85,NNW,337,0.0,0.0,85,0.00,,,0.00,WUHU21623XXSP,2013-06-14 05:56:00,
2013-06-14 02:01:00,58.8,54.3,29.85,NNW,337,0.0,0.0,85,0.00,,,0.00,WUHU21623XXSP,2013-06-14 06:01:00,
2013-06-14 02:06:00,58.8,54.3,29.85,NNW,337,0.0,0.0,85,0.00,,,0.00,WUHU21623XXSP,2013-06-14 06:06:00,
2013-06-14 02:11:00,58.6,54.1,29.85,NW,315,0.0,0.0,85,0.00,,,0.00,WUHU21623XXSP,2013-06-14 06:11:00,
2013-06-14 02:16:00,58.6,54.1,29.85,NW,315,0.0,0.0,85,0.00,,,0.00,WUHU21623XXSP,2013-06-14 06:16:00,
2013-06-14 02:21:00,58.5,54.0,29.85,NNW,337,0.0,0.0,85,0.00,,,0.00,WUHU21623XXSP,2013-06-14 06:21:00,
2013-06-14 02:26:00,58.3,54.0,29.85,NNW,337,0.0,0.0,85,0.00,,,0.00,WUHU21623XXSP,2013-06-14 06:26:00,
2013-06-14 02:31:00,58.3,53.8,29.85,NNW,337,0.0,0.0,85,0.00,,,0.00,WUHU21623XXSP,2013-06-14 06:31:00,
2013-06-14 02:36:00,58.1,53.6,29.86,NNW,337,0.0,0.0,85,0.00,,,0.00,WUHU21623XXSP,2013-06-14 06:36:00,
2013-06-14 02:41:00,57.9,53.4,29.86,NNW,337,0.0,0.0,85,0.00,,,0.00,WUHU21623XXSP,2013-06-14 06:41:00,
2013-06-14 02:46:00,57.9,53.4,29.86,NNW,337,0.0,0.0,85,0.00,,,0.00,WUHU21623XXSP,2013-06-14 06:46:00,
2013-06-14 02:51:00,57.7,53.4,29.86,NNW,337,0.0,0.0,85,0.00,,,0.00,WUHU21623XXSP,2013-06-14 06:51:00,
2013-06-14 02:56:00,57.7,53.2,29.87,NNW,337,0.0,0.0,85,0.00,,,0.00,WUHU21623XXSP,2013-06-14 06:56:00,
2013-06-14 03:01:00,57.7,53.2,29.87,NNW,337,0.0,0.0,85,0.00,,,0.00,WUHU21623XXSP,2013-06-14 07:01:00,
2013-06-14 03:06:00,57.6,53.1,29.87,NNW,337,0.0,0.0,85,0.00,,,0.00,WUHU21623XXSP,2013-06-14 07:06:00,
2013-06-14 03:11:00,57.4,53.2,29.87,NNW,337,0.0,0.0,86,0.00,,,0.00,WUHU21623XXSP,2013-06-14 07:11:00,
2013-06-14 03:16:00,57.0,52.8,29.87,NNW,337,0.0,0.0,86,0.00,,,0.00,WUHU21623XXSP,2013-06-14 07:16:00,
2013-06-14 03:21:00,57.0,52.8,29.87,NNW,337,0.0,0.0,86,0.00,,,0.00,WUHU21623XXSP,2013-06-14 07:21:00,
2013-06-14 03:26:00,57.0,52.8,29.87,NNW,337,0.0,0.0,86,0.00,,,0.00,WUHU21623XXSP,2013-06-14 07:26:00,
2013-06-14 03:31:00,57.0,52.5,29.87,NNW,337,0.0,0.0,85,0.00,,,0.00,WUHU21623XXSP,2013-06-14 07:31:00,
2013-06-14 03:36:00,57.0,52.5,29.87,NNW,337,0.0,0.0,85,0.00,,,0.00,WUHU21623XXSP,2013-06-14 07:36:00,
2013-06-14 03:41:00,57.0,52.5,29.87,NNW,337,0.0,0.0,85,0.00,,,0.00,WUHU21623XXSP,2013-06-14 07:41:00,
2013-06-14 03:46:00,57.0,52.5,29.87,NNW,337,0.0,0.0,85,0.00,,,0.00,WUHU21623XXSP,2013-06-14 07:46:00,
2013-06-14 03:51:00,57.0,52.8,29.86,NNW,337,0.0,0.0,86,0.00,,,0.00,WUHU21623XXSP,2013-06-14 07:51:00,
2013-06-14 03:56:00,57.0,52.5,29.87,NNW,337,0.0,0.0,85,0.00,,,0.00,WUHU21623XXSP,2013-06-14 07:56:00,
2013-06-14 04:01:00,57.2,52.5,29.87,NNW,337,0.0,0.0,84,0.00,,,0.00,WUHU21623XXSP,2013-06-14 08:01:00,
2013-06-14 04:06:00,57.2,52.4,29.87,NNW,337,0.0,0.0,84,0.00,,,0.00,WUHU21623XXSP,2013-06-14 08:06:00,
2013-06-14 04:11:00,57.4,52.6,29.87,NNW,337,0.0,0.0,84,0.00,,,0.00,WUHU21623XXSP,2013-06-14 08:11:00,
2013-06-14 04:16:00,57.2,52.4,29.87,NNW,337,0.0,0.0,84,0.00,,,0.00,WUHU21623XXSP,2013-06-14 08:16:00,
2013-06-14 04:21:00,57.0,52.2,29.87,NNW,337,0.0,0.0,84,0.00,,,0.00,WUHU21623XXSP,2013-06-14 08:21:00,
2013-06-14 04:26:00,57.0,52.5,29.88,NNW,337,0.0,0.0,85,0.00,,,0.00,WUHU21623XXSP,2013-06-14 08:26:00,
2013-06-14 04:31:00,57.0,52.2,29.87,NNW,337,0.0,0.0,84,0.00,,,0.00,WUHU21623XXSP,2013-06-14 08:31:00,
2013-06-14 04:36:00,57.0,52.2,29.88,NNW,337,0.0,0.0,84,0.00,,,0.00,WUHU21623XXSP,2013-06-14 08:36:00,
2013-06-14 04:41:00,57.0,52.2,29.88,NNW,337,0.0,0.0,84,0.00,,,0.00,WUHU21623XXSP,2013-06-14 08:41:00,
2013-06-14 04:46:00,56.8,52.2,29.88,NNW,337,0.0,0.0,84,0.00,,,0.00,WUHU21623XXSP,2013-06-14 08:46:00,
2013-06-14 04:51:00,56.8,52.3,29.88,NNW,337,0.0,0.0,85,0.00,,,0.00,WUHU21623XXSP,2013-06-14 08:51:00,
2013-06-14 04:56:00,56.8,52.3,29.89,NNW,337,0.0,0.0,85,0.00,,,0.00,WUHU21623XXSP,2013-06-14 08:56:00,
2013-06-14 05:01:00,56.8,52.3,29.89,NNW,337,0.0,0.0,85,0.00,,,0.00,WUHU21623XXSP,2013-06-14 09:01:00,
2013-06-14 05:06:00,56.8,52.3,29.89,NNW,337,0.0,0.0,85,0.00,,,0.00,WUHU21623XXSP,2013-06-14 09:06:00,
2013-06-14 05:11:00,56.8,52.7,29.89,NNW,337,0.0,0.0,86,0.00,,,0.00,WUHU21623XXSP,2013-06-14 09:11:00,
2013-06-14 05:16:00,56.8,52.7,29.89,NNW,337,0.0,0.0,86,0.00,,,0.00,WUHU21623XXSP,2013-06-14 09:16:00,
2013-06-14 05:21:00,56.8,52.7,29.89,NNW,337,0.0,0.0,86,0.00,,,0.00,WUHU21623XXSP,2013-06-14 09:21:00,
2013-06-14 05:26:00,56.8,53.0,29.89,NNW,337,0.0,0.0,87,0.00,,,0.00,WUHU21623XXSP,2013-06-14 09:26:00,
2013-06-14 05:31:00,56.8,53.0,29.89,NNW,337,0.0,0.0,87,0.00,,,0.00,WUHU21623XXSP,2013-06-14 09:31:00,
2013-06-14 05:36:00,56.5,52.3,29.89,NNW,337,0.0,0.0,86,0.00,,,0.00,WUHU21623XXSP,2013-06-14 09:36:00,
2013-06-14 05:41:00,56.5,52.3,29.90,NNW,337,0.0,0.0,86,0.00,,,0.00,WUHU21623XXSP,2013-06-14 09:41:00,
2013-06-14 05:46:00,56.5,52.3,29.90,NNW,337,0.0,0.0,86,0.00,,,0.00,WUHU21623XXSP,2013-06-14 09:46:00,
2013-06-14 05:51:00,56.5,52.3,29.90,NNW,337,0.0,0.0,86,0.00,,,0.00,WUHU21623XXSP,2013-06-14 09:51:00,
2013-06-14 05:56:00,56.5,52.3,29.90,NNW,337,0.0,0.0,86,0.00,,,0.00,WUHU21623XXSP,2013-06-14 09:56:00,
2013-06-14 06:01:00,56.5,52.3,29.90,NNW,337,0.0,0.0,86,0.00,,,0.00,WUHU21623XXSP,2013-06-14 10:01:00,
2013-06-14 06:06:00,56.5,52.6,29.90,NNW,337,0.0,0.0,87,0.00,,,0.00,WUHU21623XXSP,2013-06-14 10:06:00,
2013-06-14 06:11:00,56.5,52.6,29.90,NNW,337,0.0,0.0,87,0.00,,,0.00,WUHU21623XXSP,2013-06-14 10:11:00,
2013-06-14 06:16:00,56.8,53.0,29.91,NNW,337,0.0,0.0,87,0.00,,,0.00,WUHU21623XXSP,2013-06-14 10:16:00,
2013-06-14 06:21:00,56.8,53.0,29.91,NNW,337,0.0,0.0,87,0.00,,,0.00,WUHU21623XXSP,2013-06-14 10:21:00,
2013-06-14 06:26:00,56.8,53.0,29.91,NNW,337,0.0,0.0,87,0.00,,,0.00,WUHU21623XXSP,2013-06-14 10:26:00,
2013-06-14 06:31:00,56.7,52.8,29.91,NNW,337,0.0,0.0,87,0.00,,,0.00,WUHU21623XXSP,2013-06-14 10:31:00,
2013-06-14 06:36:00,56.8,53.0,29.91,NNW,337,0.0,0.0,87,0.00,,,0.00,WUHU21623XXSP,2013-06-14 10:36:00,
2013-06-14 06:41:00,56.8,53.0,29.92,NNW,337,0.0,0.0,87,0.00,,,0.00,WUHU21623XXSP,2013-06-14 10:41:00,
2013-06-14 06:46:00,56.8,53.0,29.91,NNW,337,0.0,0.0,87,0.00,,,0.00,WUHU21623XXSP,2013-06-14 10:46:00,
2013-06-14 06:51:00,56.8,53.0,29.92,NNW,337,0.0,0.0,87,0.00,,,0.00,WUHU21623XXSP,2013-06-14 10:51:00,
2013-06-14 06:56:00,56.8,53.0,29.92,NNW,337,0.0,0.0,87,0.00,,,0.00,WUHU21623XXSP,2013-06-14 10:56:00,
2013-06-14 07:01:00,56.8,53.0,29.91,NNW,337,0.0,0.0,87,0.00,,,0.00,WUHU21623XXSP,2013-06-14 11:01:00,
2013-06-14 07:06:00,56.8,53.3,29.91,NNW,337,0.0,0.0,88,0.00,,,0.00,WUHU21623XXSP,2013-06-14 11:06:00,
2013-06-14 07:11:00,56.8,53.3,29.92,NNW,337,0.0,0.0,88,0.00,,,0.00,WUHU21623XXSP,2013-06-14 11:11:00,
2013-06-14 07:16:00,56.8,53.0,29.92,NNW,337,0.0,0.0,87,0.00,,,0.00,WUHU21623XXSP,2013-06-14 11:16:00,
2013-06-14 07:21:00,57.0,53.5,29.92,NNW,337,0.0,0.0,88,0.00,,,0.00,WUHU21623XXSP,2013-06-14 11:21:00,
2013-06-14 07:26:00,57.0,53.5,29.92,NNW,337,0.0,0.0,88,0.00,,,0.00,WUHU21623XXSP,2013-06-14 11:26:00,
2013-06-14 07:31:00,57.2,53.7,29.92,NNW,337,0.0,0.0,88,0.00,,,0.00,WUHU21623XXSP,2013-06-14 11:31:00,
2013-06-14 07:36:00,57.2,53.3,29.93,NNW,337,0.0,0.0,87,0.00,,,0.00,WUHU21623XXSP,2013-06-14 11:36:00,
2013-06-14 07:41:00,57.4,53.5,29.93,NNW,337,0.0,0.0,87,0.00,,,0.00,WUHU21623XXSP,2013-06-14 11:41:00,
2013-06-14 07:46:00,57.4,53.5,29.93,NNW,337,0.0,0.0,87,0.00,,,0.00,WUHU21623XXSP,2013-06-14 11:46:00,
2013-06-14 07:51:00,57.7,53.9,29.93,NNW,337,0.0,0.0,87,0.00,,,0.00,WUHU21623XXSP,2013-06-14 11:51:00,
2013-06-14 07:56:00,57.9,54.1,29.93,NNW,337,0.0,0.0,87,0.00,,,0.00,WUHU21623XXSP,2013-06-14 11:56:00,
2013-06-14 08:01:00,58.1,54.2,29.94,NNW,337,0.0,0.0,87,0.00,,,0.00,WUHU21623XXSP,2013-06-14 12:01:00,
2013-06-14 08:06:00,58.1,54.2,29.94,NNW,337,0.0,0.0,87,0.00,,,0.00,WUHU21623XXSP,2013-06-14 12:06:00,
2013-06-14 08:11:00,58.1,54.2,29.94,NNW,337,0.0,0.0,87,0.00,,,0.00,WUHU21623XXSP,2013-06-14 12:11:00,
2013-06-14 08:16:00,58.3,54.4,29.94,NNW,337,0.0,0.0,87,0.00,,,0.00,WUHU21623XXSP,2013-06-14 12:16:00,
2013-06-14 08:21:00,58.3,54.4,29.94,NNW,337,0.0,0.0,87,0.00,,,0.00,WUHU21623XXSP,2013-06-14 12:21:00,
2013-06-14 08:26:00,58.5,54.6,29.94,NNW,337,0.0,0.0,87,0.00,,,0.00,WUHU21623XXSP,2013-06-14 12:26:00,
2013-06-14 08:31:00,58.6,54.8,29.94,NNW,337,0.0,0.0,87,0.00,,,0.00,WUHU21623XXSP,2013-06-14 12:31:00,
2013-06-14 08:36:00,58.8,55.0,29.94,NNW,337,0.0,0.0,87,0.00,,,0.00,WUHU21623XXSP,2013-06-14 12:36:00,
2013-06-14 08:41:00,58.8,55.0,29.95,NNW,337,0.0,0.0,87,0.00,,,0.00,WUHU21623XXSP,2013-06-14 12:41:00,
2013-06-14 08:46:00,58.8,55.0,29.95,NNW,337,0.0,0.0,87,0.00,,,0.00,WUHU21623XXSP,2013-06-14 12:46:00,
2013-06-14 08:51:00,58.8,55.0,29.95,NNW,337,0.0,0.0,87,0.00,,,0.00,WUHU21623XXSP,2013-06-14 12:51:00,
2013-06-14 08:56:00,59.2,55.3,29.95,NNW,337,0.0,0.0,87,0.00,,,0.00,WUHU21623XXSP,2013-06-14 12:56:00,
2013-06-14 09:01:00,59.4,55.5,29.95,NNW,337,0.0,0.0,87,0.00,,,0.00,WUHU21623XXSP,2013-06-14 13:01:00,
2013-06-14 09:06:00,59.4,55.2,29.96,NNW,337,0.0,0.0,86,0.00,,,0.00,WUHU21623XXSP,2013-06-14 13:06:00,
2013-06-14 09:11:00,59.5,55.4,29.95,NNW,337,0.0,0.0,86,0.00,,,0.00,WUHU21623XXSP,2013-06-14 13:11:00,
2013-06-14 09:16:00,59.7,55.5,29.96,NNW,337,0.0,0.0,86,0.00,,,0.00,WUHU21623XXSP,2013-06-14 13:16:00,
2013-06-14 09:21:00,59.9,55.4,29.97,NNW,337,0.0,0.0,85,0.00,,,0.00,WUHU21623XXSP,2013-06-14 13:21:00,
2013-06-14 09:26:00,60.1,55.6,29.97,NNW,337,0.0,0.0,85,0.00,,,0.00,WUHU21623XXSP,2013-06-14 13:26:00,
2013-06-14 09:31:00,60.1,55.3,29.97,NNW,337,0.0,0.0,84,0.00,,,0.00,WUHU21623XXSP,2013-06-14 13:31:00,
2013-06-14 09:36:00,60.1,55.3,29.97,NNW,337,0.0,0.0,84,0.00,,,0.00,WUHU21623XXSP,2013-06-14 13:36:00,
2013-06-14 09:41:00,59.9,55.1,29.97,NNW,337,0.0,0.0,84,0.00,,,0.00,WUHU21623XXSP,2013-06-14 13:41:00,
2013-06-14 09:46:00,60.1,55.3,29.98,NNW,337,0.0,0.0,84,0.00,,,0.00,WUHU21623XXSP,2013-06-14 13:46:00,
2013-06-14 09:51:00,60.1,54.9,29.97,NNW,337,0.0,0.0,83,0.00,,,0.00,WUHU21623XXSP,2013-06-14 13:51:00,
2013-06-14 09:56:00,60.1,54.9,29.98,NNW,337,0.0,0.0,83,0.00,,,0.00,WUHU21623XXSP,2013-06-14 13:56:00,
2013-06-14 10:01:00,60.1,54.9,29.98,NNW,337,0.0,0.0,83,0.00,,,0.00,WUHU21623XXSP,2013-06-14 14:01:00,
2013-06-14 10:06:00,60.4,55.3,29.98,NNW,337,0.0,0.0,83,0.00,,,0.00,WUHU21623XXSP,2013-06-14 14:06:00,
2013-06-14 10:11:00,60.3,55.1,29.98,NNW,337,0.0,0.0,83,0.00,,,0.00,WUHU21623XXSP,2013-06-14 14:11:00,
2013-06-14 10:16:00,60.4,55.3,29.98,NNW,337,0.0,0.0,83,0.00,,,0.00,WUHU21623XXSP,2013-06-14 14:16:00,
2013-06-14 10:21:00,60.1,54.6,29.98,NNW,337,0.0,0.0,82,0.00,,,0.00,WUHU21623XXSP,2013-06-14 14:21:00,
2013-06-14 10:26:00,60.3,55.1,29.98,NNW,337,0.0,0.0,83,0.00,,,0.00,WUHU21623XXSP,2013-06-14 14:26:00,
2013-06-14 10:31:00,60.4,55.3,29.99,NNW,337,0.0,0.0,83,0.00,,,0.00,WUHU21623XXSP,2013-06-14 14:31:00,
2013-06-14 10:36:00,60.4,55.3,29.99,NNW,337,0.0,0.0,83,0.00,,,0.00,WUHU21623XXSP,2013-06-14 14:36:00,
2013-06-14 10:41:00,60.4,55.0,29.99,NNW,337,0.0,0.0,82,0.00,,,0.00,WUHU21623XXSP,2013-06-14 14:41:00,
2013-06-14 10:46:00,60.4,55.0,29.99,NNW,337,0.0,0.0,82,0.00,,,0.00,WUHU21623XXSP,2013-06-14 14:46:00,
2013-06-14 10:51:00,60.6,55.5,29.99,NNW,337,0.0,0.0,83,0.00,,,0.00,WUHU21623XXSP,2013-06-14 14:51:00,
2013-06-14 10:56:00,61.2,55.7,29.99,NNW,337,0.0,0.0,82,0.00,,,0.00,WUHU21623XXSP,2013-06-14 14:56:00,
2013-06-14 11:01:00,61.5,56.0,29.99,NNW,337,0.0,0.0,82,0.00,,,0.00,WUHU21623XXSP,2013-06-14 15:01:00,
2013-06-14 11:06:00,62.1,56.1,29.99,NNW,337,0.0,0.0,81,0.00,,,0.00,WUHU21623XXSP,2013-06-14 15:06:00,
2013-06-14 11:11:00,63.0,56.8,29.99,NNW,337,0.0,0.0,81,0.00,,,0.00,WUHU21623XXSP,2013-06-14 15:11:00,
2013-06-14 11:16:00,63.3,57.0,29.99,NNW,337,0.0,0.0,80,0.00,,,0.00,WUHU21623XXSP,2013-06-14 15:16:00,
2013-06-14 11:21:00,63.5,56.8,30.00,NNW,337,0.0,0.0,79,0.00,,,0.00,WUHU21623XXSP,2013-06-14 15:21:00,
2013-06-14 11:26:00,63.5,56.5,30.00,NW,315,0.0,0.0,78,0.00,,,0.00,WUHU21623XXSP,2013-06-14 15:26:00,
2013-06-14 11:31:00,63.7,57.0,30.00,NNW,337,1.3,1.3,79,0.00,,,0.00,WUHU21623XXSP,2013-06-14 15:31:00,
2013-06-14 11:36:00,64.2,57.6,30.00,NW,315,0.0,1.6,79,0.00,,,0.00,WUHU21623XXSP,2013-06-14 15:36:00,
2013-06-14 11:41:00,64.9,57.2,30.00,NW,315,0.0,1.6,76,0.00,,,0.00,WUHU21623XXSP,2013-06-14 15:41:00,
2013-06-14 11:46:00,64.9,57.2,30.00,NW,315,0.0,0.0,76,0.00,,,0.00,WUHU21623XXSP,2013-06-14 15:46:00,
2013-06-14 11:51:00,65.3,57.5,30.00,NW,315,4.3,4.3,76,0.00,,,0.00,WUHU21623XXSP,2013-06-14 15:51:00,
2013-06-14 11:56:00,65.8,57.7,30.00,NNW,337,1.1,4.3,75,0.00,,,0.00,WUHU21623XXSP,2013-06-14 15:56:00,
2013-06-14 12:01:00,65.8,57.7,30.00,NW,315,0.0,4.3,75,0.00,,,0.00,WUHU21623XXSP,2013-06-14 16:01:00,
2013-06-14 12:06:00,66.0,57.1,30.00,NW,315,0.0,0.9,73,0.00,,,0.00,WUHU21623XXSP,2013-06-14 16:06:00,
2013-06-14 12:11:00,66.4,57.8,30.00,NW,315,0.0,0.9,72,0.00,,,0.00,WUHU21623XXSP,2013-06-14 16:11:00,
2013-06-14 12:16:00,66.7,57.4,30.00,NW,315,3.8,3.8,72,0.00,,,0.00,WUHU21623XXSP,2013-06-14 16:16:00,
2013-06-14 12:21:00,66.6,57.2,30.01,WNW,292,6.9,6.9,72,0.00,,,0.00,WUHU21623XXSP,2013-06-14 16:21:00,
2013-06-14 12:26:00,65.7,56.8,30.00,NW,315,2.0,6.9,73,0.00,,,0.00,WUHU21623XXSP,2013-06-14 16:26:00,
2013-06-14 12:31:00,65.3,56.8,30.01,NW,315,2.0,2.0,74,0.00,,,0.00,WUHU21623XXSP,2013-06-14 16:31:00,
2013-06-14 12:36:00,65.7,57.1,30.01,NW,315,0.0,2.7,74,0.00,,,0.00,WUHU21623XXSP,2013-06-14 16:36:00,
2013-06-14 12:41:00,66.2,58.0,30.01,NW,315,0.0,2.7,75,0.00,,,0.00,WUHU21623XXSP,2013-06-14 16:41:00,
2013-06-14 12:46:00,66.4,57.4,30.01,NW,315,3.6,3.6,73,0.00,,,0.00,WUHU21623XXSP,2013-06-14 16:46:00,
2013-06-14 12:51:00,66.0,57.1,30.01,NW,315,0.0,3.6,73,0.00,,,0.00,WUHU21623XXSP,2013-06-14 16:51:00,
2013-06-14 12:56:00,66.0,57.1,30.00,NNW,337,0.0,3.1,73,0.00,,,0.00,WUHU21623XXSP,2013-06-14 16:56:00,
2013-06-14 13:01:00,66.0,56.7,30.01,NNW,337,0.0,0.7,72,0.00,,,0.00,WUHU21623XXSP,2013-06-14 17:01:00,
2013-06-14 13:06:00,66.4,57.4,30.01,NNW,337,0.0,2.7,73,0.00,,,0.00,WUHU21623XXSP,2013-06-14 17:06:00,
2013-06-14 13:11:00,66.0,57.1,30.01,NNW,337,0.0,2.7,73,0.00,,,0.00,WUHU21623XXSP,2013-06-14 17:11:00,
2013-06-14 13:16:00,66.0,57.5,30.01,NW,315,0.0,0.0,74,0.00,,,0.00,WUHU21623XXSP,2013-06-14 17:16:00,
2013-06-14 13:21:00,66.4,57.4,30.01,NW,315,0.0,6.0,73,0.00,,,0.00,WUHU21623XXSP,2013-06-14 17:21:00,
2013-06-14 13:26:00,66.0,56.3,30.02,North,0,0.0,6.0,71,0.00,,,0.00,WUHU21623XXSP,2013-06-14 17:26:00,
2013-06-14 13:31:00,66.0,56.7,30.02,NNW,337,0.0,0.0,72,0.00,,,0.00,WUHU21623XXSP,2013-06-14 17:31:00,
2013-06-14 13:36:00,66.4,56.7,30.02,NW,315,0.9,1.3,71,0.00,,,0.00,WUHU21623XXSP,2013-06-14 17:36:00,
2013-06-14 13:41:00,66.6,56.9,30.02,NNW,337,1.6,2.7,71,0.00,,,0.00,WUHU21623XXSP,2013-06-14 17:41:00,
2013-06-14 13:46:00,66.6,56.5,30.02,ENE,67,0.0,2.7,70,0.00,,,0.00,WUHU21623XXSP,2013-06-14 17:46:00,
2013-06-14 13:51:00,66.9,57.2,30.01,NE,45,0.0,0.0,71,0.00,,,0.00,WUHU21623XXSP,2013-06-14 17:51:00,
2013-06-14 13:56:00,67.6,57.9,30.01,NE,45,0.0,0.0,71,0.00,,,0.00,WUHU21623XXSP,2013-06-14 17:56:00,
2013-06-14 14:01:00,67.8,56.9,30.01,North,0,0.0,2.9,68,0.00,,,0.00,WUHU21623XXSP,2013-06-14 18:01:00,
2013-06-14 14:06:00,67.6,56.3,30.02,NW,315,2.2,2.9,67,0.00,,,0.00,WUHU21623XXSP,2013-06-14 18:06:00,
2013-06-14 14:11:00,67.1,56.3,30.02,NNW,337,0.0,2.2,68,0.00,,,0.00,WUHU21623XXSP,2013-06-14 18:11:00,
2013-06-14 14:16:00,66.9,56.0,30.02,NNW,337,0.0,0.0,68,0.00,,,0.00,WUHU21623XXSP,2013-06-14 18:16:00,
2013-06-14 14:21:00,67.3,56.3,30.02,NW,315,0.0,1.1,68,0.00,,,0.00,WUHU21623XXSP,2013-06-14 18:21:00,
2013-06-14 14:26:00,67.8,56.9,30.02,NNW,337,1.3,1.3,68,0.00,,,0.00,WUHU21623XXSP,2013-06-14 18:26:00,
2013-06-14 14:31:00,68.0,56.2,30.02,NNW,337,0.0,1.3,66,0.00,,,0.00,WUHU21623XXSP,2013-06-14 18:31:00,
2013-06-14 14:36:00,67.8,56.0,30.02,NW,315,0.0,0.9,66,0.00,,,0.00,WUHU21623XXSP,2013-06-14 18:36:00,
2013-06-14 14:41:00,67.8,56.0,30.02,NW,315,0.0,0.9,66,0.00,,,0.00,WUHU21623XXSP,2013-06-14 18:41:00,
2013-06-14 14:46:00,67.8,55.6,30.02,NE,45,1.1,1.1,65,0.00,,,0.00,WUHU21623XXSP,2013-06-14 18:46:00,
2013-06-14 14:51:00,68.0,55.3,30.02,NE,45,0.4,1.1,64,0.00,,,0.00,WUHU21623XXSP,2013-06-14 18:51:00,
2013-06-14 14:56:00,68.2,55.9,30.01,NW,315,4.9,6.0,65,0.00,,,0.00,WUHU21623XXSP,2013-06-14 18:56:00,
2013-06-14 15:01:00,68.4,55.2,30.02,NW,315,5.1,6.0,63,0.00,,,0.00,WUHU21623XXSP,2013-06-14 19:01:00,
2013-06-14 15:06:00,68.2,55.1,30.02,NW,315,2.9,5.1,63,0.00,,,0.00,WUHU21623XXSP,2013-06-14 19:06:00,
2013-06-14 15:11:00,68.4,55.1,30.02,NNW,337,2.2,2.9,64,0.00,,,0.00,WUHU21623XXSP,2013-06-14 19:11:00,
2013-06-14 15:16:00,68.5,55.0,30.01,NE,45,1.3,2.7,62,0.00,,,0.00,WUHU21623XXSP,2013-06-14 19:16:00,
2013-06-14 15:21:00,68.7,56.0,30.01,NNE,22,1.3,2.7,64,0.00,,,0.00,WUHU21623XXSP,2013-06-14 19:21:00,
2013-06-14 15:26:00,68.5,55.8,30.01,North,0,0.0,1.3,64,0.00,,,0.00,WUHU21623XXSP,2013-06-14 19:26:00,
2013-06-14 15:31:00,68.7,56.0,30.01,NW,315,3.4,3.4,64,0.00,,,0.00,WUHU21623XXSP,2013-06-14 19:31:00,
2013-06-14 15:36:00,68.7,56.2,30.02,North,0,0.0,3.4,64,0.00,,,0.00,WUHU21623XXSP,2013-06-14 19:36:00,
2013-06-14 15:41:00,68.7,56.4,30.02,NNW,337,1.6,1.6,65,0.00,,,0.00,WUHU21623XXSP,2013-06-14 19:41:00,
2013-06-14 15:46:00,68.7,56.0,30.02,North,0,0.0,1.6,64,0.00,,,0.00,WUHU21623XXSP,2013-06-14 19:46:00,
2013-06-14 15:51:00,68.9,56.2,30.01,NNE,22,0.0,0.0,64,0.00,,,0.00,WUHU21623XXSP,2013-06-14 19:51:00,
2013-06-14 15:56:00,68.7,55.6,30.01,NE,45,0.0,0.0,63,0.00,,,0.00,WUHU21623XXSP,2013-06-14 19:56:00,
2013-06-14 16:01:00,68.2,55.1,30.01,NE,45,0.0,0.0,63,0.00,,,0.00,WUHU21623XXSP,2013-06-14 20:01:00,
2013-06-14 16:06:00,68.4,55.7,30.01,NE,45,1.6,1.6,64,0.00,,,0.00,WUHU21623XXSP,2013-06-14 20:06:00,
2013-06-14 16:11:00,68.7,56.4,30.01,North,0,0.0,1.6,65,0.00,,,0.00,WUHU21623XXSP,2013-06-14 20:11:00,
2013-06-14 16:16:00,69.1,55.1,30.00,NE,45,0.0,2.2,61,0.00,,,0.00,WUHU21623XXSP,2013-06-14 20:16:00,
2013-06-14 16:21:00,69.3,54.9,30.00,NW,315,4.0,4.0,60,0.00,,,0.00,WUHU21623XXSP,2013-06-14 20:21:00,
2013-06-14 16:26:00,69.4,55.5,30.01,NNW,337,0.0,4.0,61,0.00,,,0.00,WUHU21623XXSP,2013-06-14 20:26:00,
2013-06-14 16:31:00,69.6,56.0,30.00,NNW,337,0.0,0.0,62,0.00,,,0.00,WUHU21623XXSP,2013-06-14 20:31:00,
2013-06-14 16:36:00,69.6,53.7,30.00,ENE,67,0.0,0.0,57,0.00,,,0.00,WUHU21623XXSP,2013-06-14 20:36:00,
2013-06-14 16:41:00,69.8,55.4,30.01,NNW,337,1.1,1.1,60,0.00,,,0.00,WUHU21623XXSP,2013-06-14 20:41:00,
2013-06-14 16:46:00,70.0,55.1,30.00,NNW,337,0.7,2.5,59,0.00,,,0.00,WUHU21623XXSP,2013-06-14 20:46:00,
2013-06-14 16:51:00,70.2,55.7,30.01,NW,315,0.0,2.5,60,0.00,,,0.00,WUHU21623XXSP,2013-06-14 20:51:00,
2013-06-14 16:56:00,70.3,55.4,30.00,NNW,337,1.6,1.6,59,0.00,,,0.00,WUHU21623XXSP,2013-06-14 20:56:00,
2013-06-14 17:01:00,70.3,55.4,30.00,NW,315,2.9,2.9,59,0.00,,,0.00,WUHU21623XXSP,2013-06-14 21:01:00,
2013-06-14 17:06:00,70.5,55.5,30.00,NW,315,0.0,2.9,59,0.00,,,0.00,WUHU21623XXSP,2013-06-14 21:06:00,
2013-06-14 17:11:00,70.9,55.4,30.01,NW,315,2.2,4.7,58,0.00,,,0.00,WUHU21623XXSP,2013-06-14 21:11:00,
2013-06-14 17:16:00,71.1,55.0,30.01,NNW,337,1.1,4.7,57,0.00,,,0.00,WUHU21623XXSP,2013-06-14 21:16:00,
2013-06-14 17:21:00,71.4,55.9,30.01,NNW,337,0.0,2.5,58,0.00,,,0.00,WUHU21623XXSP,2013-06-14 21:21:00,
2013-06-14 17:26:00,71.4,55.3,30.01,NNW,337,1.8,3.6,57,0.00,,,0.00,WUHU21623XXSP,2013-06-14 21:26:00,
2013-06-14 17:31:00,71.4,55.9,30.01,NNW,337,0.0,3.6,58,0.00,,,0.00,WUHU21623XXSP,2013-06-14 21:31:00,
2013-06-14 17:36:00,71.4,55.9,30.01,North,0,0.0,0.0,58,0.00,,,0.00,WUHU21623XXSP,2013-06-14 21:36:00,
2013-06-14 17:41:00,71.4,56.4,30.01,NNW,337,0.0,0.0,59,0.00,,,0.00,WUHU21623XXSP,2013-06-14 21:41:00,
2013-06-14 17:46:00,72.1,55.5,30.01,NNW,337,0.0,0.0,56,0.00,,,0.00,WUHU21623XXSP,2013-06-14 21:46:00,
2013-06-14 17:51:00,72.3,55.7,30.00,NNW,337,0.0,0.0,56,0.00,,,0.00,WUHU21623XXSP,2013-06-14 21:51:00,
2013-06-14 17:56:00,72.3,55.1,30.01,NNW,337,0.0,0.9,55,0.00,,,0.00,WUHU21623XXSP,2013-06-14 21:56:00,
2013-06-14 18:01:00,72.1,55.0,30.00,NNE,22,0.0,0.9,55,0.00,,,0.00,WUHU21623XXSP,2013-06-14 22:01:00,
2013-06-14 18:06:00,71.8,55.2,30.01,NNE,22,0.0,0.0,56,0.00,,,0.00,WUHU21623XXSP,2013-06-14 22:06:00,
2013-06-14 18:11:00,71.4,54.3,30.00,NNE,22,0.0,1.8,55,0.00,,,0.00,WUHU21623XXSP,2013-06-14 22:11:00,
2013-06-14 18:16:00,71.4,54.3,30.00,NNW,337,0.0,1.8,55,0.00,,,0.00,WUHU21623XXSP,2013-06-14 22:16:00,
2013-06-14 18:21:00,71.8,54.2,30.00,North,0,0.0,0.0,54,0.00,,,0.00,WUHU21623XXSP,2013-06-14 22:21:00,
2013-06-14 18:26:00,71.8,53.7,30.00,ENE,67,0.0,0.0,53,0.00,,,0.00,WUHU21623XXSP,2013-06-14 22:26:00,
2013-06-14 18:31:00,71.8,53.7,30.00,ENE,67,0.0,0.0,53,0.00,,,0.00,WUHU21623XXSP,2013-06-14 22:31:00,
2013-06-14 18:36:00,71.6,54.0,30.00,ENE,67,0.0,0.0,54,0.00,,,0.00,WUHU21623XXSP,2013-06-14 22:36:00,
2013-06-14 18:41:00,71.8,54.2,30.00,NE,45,0.0,0.0,54,0.00,,,0.00,WUHU21623XXSP,2013-06-14 22:41:00,
2013-06-14 18:46:00,72.0,54.3,30.00,NNE,22,0.0,0.0,54,0.00,,,0.00,WUHU21623XXSP,2013-06-14 22:46:00,
2013-06-14 18:51:00,72.0,54.3,30.00,NNE,22,0.0,0.0,54,0.00,,,0.00,WUHU21623XXSP,2013-06-14 22:51:00,
2013-06-14 18:56:00,72.1,54.5,30.00,North,0,0.0,0.0,54,0.00,,,0.00,WUHU21623XXSP,2013-06-14 22:56:00,
2013-06-14 19:01:00,72.0,53.5,30.00,NNW,337,0.0,0.0,53,0.00,,,0.00,WUHU21623XXSP,2013-06-14 23:01:00,
2013-06-14 19:06:00,72.0,53.8,30.01,WSW,247,0.0,0.0,53,0.00,,,0.00,WUHU21623XXSP,2013-06-14 23:06:00,
2013-06-14 19:11:00,71.8,54.2,30.01,WSW,247,0.0,0.0,54,0.00,,,0.00,WUHU21623XXSP,2013-06-14 23:11:00,
2013-06-14 19:16:00,72.0,54.8,30.02,NNW,337,0.0,0.0,55,0.00,,,0.00,WUHU21623XXSP,2013-06-14 23:16:00,
2013-06-14 19:21:00,72.0,54.8,30.02,NNW,337,0.9,0.9,55,0.00,,,0.00,WUHU21623XXSP,2013-06-14 23:21:00,
2013-06-14 19:26:00,71.4,54.3,30.01,NNW,337,0.0,0.9,55,0.00,,,0.00,WUHU21623XXSP,2013-06-14 23:26:00,
2013-06-14 19:31:00,71.1,54.5,30.02,NNW,337,0.0,0.0,56,0.00,,,0.00,WUHU21623XXSP,2013-06-14 23:31:00,
2013-06-14 19:36:00,70.7,54.4,30.02,NNW,337,0.0,0.0,56,0.00,,,0.00,WUHU21623XXSP,2013-06-14 23:36:00,
2013-06-14 19:41:00,70.5,54.5,30.02,NNW,337,1.8,1.8,57,0.00,,,0.00,WUHU21623XXSP,2013-06-14 23:41:00,
2013-06-14 19:46:00,70.3,54.4,30.02,NNW,337,1.3,1.8,57,0.00,,,0.00,WUHU21623XXSP,2013-06-14 23:46:00,
2013-06-14 19:51:00,70.2,54.7,30.02,NNW,337,0.0,1.3,58,0.00,,,0.00,WUHU21623XXSP,2013-06-14 23:51:00,
2013-06-14 19:56:00,70.2,54.7,30.02,NNW,337,0.0,0.0,58,0.00,,,0.00,WUHU21623XXSP,2013-06-14 23:56:00,
2013-06-14 20:01:00,70.0,54.6,30.02,NNW,337,0.0,0.0,58,0.00,,,0.00,WUHU21623XXSP,2013-06-15 00:01:00,
2013-06-14 20:06:00,69.8,54.4,30.02,NNW,337,0.0,0.0,58,0.00,,,0.00,WUHU21623XXSP,2013-06-15 00:06:00,
2013-06-14 20:11:00,69.6,54.2,30.02,NNW,337,0.0,0.0,58,0.00,,,0.00,WUHU21623XXSP,2013-06-15 00:11:00,
2013-06-14 20:16:00,69.6,54.7,30.02,NNW,337,0.0,0.0,59,0.00,,,0.00,WUHU21623XXSP,2013-06-15 00:16:00,
2013-06-14 20:21:00,69.6,54.7,30.02,NNW,337,0.0,0.0,59,0.00,,,0.00,WUHU21623XXSP,2013-06-15 00:21:00,
2013-06-14 20:26:00,69.4,54.5,30.02,NNW,337,0.0,0.0,59,0.00,,,0.00,WUHU21623XXSP,2013-06-15 00:26:00,
2013-06-14 20:31:00,69.1,54.2,30.03,NNW,337,0.0,0.0,59,0.00,,,0.00,WUHU21623XXSP,2013-06-15 00:31:00,
2013-06-14 20:36:00,68.9,54.5,30.03,NNW,337,0.0,0.0,60,0.00,,,0.00,WUHU21623XXSP,2013-06-15 00:36:00,
2013-06-14 20:41:00,68.7,54.3,30.03,NNW,337,0.0,0.0,60,0.00,,,0.00,WUHU21623XXSP,2013-06-15 00:41:00,
2013-06-14 20:46:00,68.5,54.6,30.03,NNW,337,0.0,0.0,61,0.00,,,0.00,WUHU21623XXSP,2013-06-15 00:46:00,
2013-06-14 20:51:00,68.4,54.4,30.02,NNW,337,0.0,0.0,61,0.00,,,0.00,WUHU21623XXSP,2013-06-15 00:51:00,
2013-06-14 20:56:00,68.2,54.6,30.03,NNW,337,0.0,0.0,62,0.00,,,0.00,WUHU21623XXSP,2013-06-15 00:56:00,
2013-06-14 21:01:00,67.8,54.3,30.03,NNW,337,0.0,0.0,63,0.00,,,0.00,WUHU21623XXSP,2013-06-15 01:01:00,
2013-06-14 21:06:00,67.6,54.6,30.03,NNW,337,0.0,0.0,63,0.00,,,0.00,WUHU21623XXSP,2013-06-15 01:06:00,
2013-06-14 21:11:00,67.6,54.6,30.03,NNW,337,0.0,0.0,63,0.00,,,0.00,WUHU21623XXSP,2013-06-15 01:11:00,
2013-06-14 21:16:00,67.3,54.6,30.03,NNW,337,0.0,0.0,64,0.00,,,0.00,WUHU21623XXSP,2013-06-15 01:16:00,
2013-06-14 21:21:00,67.1,54.5,30.03,NNW,337,0.0,0.0,64,0.00,,,0.00,WUHU21623XXSP,2013-06-15 01:21:00,
2013-06-14 21:26:00,66.9,54.3,30.04,NNW,337,0.0,0.0,64,0.00,,,0.00,WUHU21623XXSP,2013-06-15 01:26:00,
2013-06-14 21:31:00,66.7,54.6,30.04,NNW,337,0.0,0.0,65,0.00,,,0.00,WUHU21623XXSP,2013-06-15 01:31:00,
2013-06-14 21:36:00,66.6,54.8,30.04,NNW,337,0.0,0.0,66,0.00,,,0.00,WUHU21623XXSP,2013-06-15 01:36:00,
2013-06-14 21:41:00,66.2,54.9,30.04,NNW,337,0.0,0.0,67,0.00,,,0.00,WUHU21623XXSP,2013-06-15 01:41:00,
2013-06-14 21:46:00,66.0,54.7,30.05,NNW,337,0.0,0.0,67,0.00,,,0.00,WUHU21623XXSP,2013-06-15 01:46:00,
2013-06-14 21:51:00,65.8,54.5,30.05,NNW,337,0.0,0.0,67,0.00,,,0.00,WUHU21623XXSP,2013-06-15 01:51:00,
2013-06-14 21:56:00,65.7,54.8,30.05,NNW,337,0.0,0.0,68,0.00,,,0.00,WUHU21623XXSP,2013-06-15 01:56:00,
2013-06-14 22:01:00,65.3,54.5,30.05,NNW,337,0.0,0.0,68,0.00,,,0.00,WUHU21623XXSP,2013-06-15 02:01:00,
2013-06-14 22:06:00,65.1,54.7,30.05,NNW,337,0.0,0.0,69,0.00,,,0.00,WUHU21623XXSP,2013-06-15 02:06:00,
2013-06-14 22:11:00,64.9,54.6,30.05,NNW,337,0.0,0.0,69,0.00,,,0.00,WUHU21623XXSP,2013-06-15 02:11:00,
2013-06-14 22:16:00,64.8,54.8,30.05,NNW,337,0.0,0.0,70,0.00,,,0.00,WUHU21623XXSP,2013-06-15 02:16:00,
2013-06-14 22:21:00,64.6,54.7,30.06,NNW,337,0.0,0.0,70,0.00,,,0.00,WUHU21623XXSP,2013-06-15 02:21:00,
2013-06-14 22:26:00,64.4,54.7,30.06,NNW,337,0.0,0.0,70,0.00,,,0.00,WUHU21623XXSP,2013-06-15 02:26:00,
2013-06-14 22:31:00,64.2,54.7,30.06,NNW,337,0.0,0.0,71,0.00,,,0.00,WUHU21623XXSP,2013-06-15 02:31:00,
2013-06-14 22:36:00,64.0,54.5,30.06,NNW,337,0.0,0.0,71,0.00,,,0.00,WUHU21623XXSP,2013-06-15 02:36:00,
2013-06-14 22:41:00,63.7,54.5,30.06,NNW,337,0.0,0.0,72,0.00,,,0.00,WUHU21623XXSP,2013-06-15 02:41:00,
2013-06-14 22:46:00,63.3,54.1,30.06,NNW,337,0.0,0.0,72,0.00,,,0.00,WUHU21623XXSP,2013-06-15 02:46:00,
2013-06-14 22:51:00,63.3,54.5,30.06,NNW,337,0.0,0.0,73,0.00,,,0.00,WUHU21623XXSP,2013-06-15 02:51:00,
2013-06-14 22:56:00,63.1,54.3,30.06,NNW,337,0.0,0.0,73,0.00,,,0.00,WUHU21623XXSP,2013-06-15 02:56:00,
2013-06-14 23:01:00,63.0,54.5,30.06,NNW,337,0.0,0.0,74,0.00,,,0.00,WUHU21623XXSP,2013-06-15 03:01:00,
2013-06-14 23:06:00,63.0,54.5,30.06,NNW,337,0.0,0.0,74,0.00,,,0.00,WUHU21623XXSP,2013-06-15 03:06:00,
2013-06-14 23:11:00,62.8,54.7,30.07,NNW,337,0.0,0.0,75,0.00,,,0.00,WUHU21623XXSP,2013-06-15 03:11:00,
2013-06-14 23:16:00,62.4,54.3,30.07,NNW,337,0.0,0.0,75,0.00,,,0.00,WUHU21623XXSP,2013-06-15 03:16:00,
2013-06-14 23:21:00,62.2,54.2,30.07,NNW,337,0.0,0.0,75,0.00,,,0.00,WUHU21623XXSP,2013-06-15 03:21:00,
2013-06-14 23:26:00,61.9,54.2,30.07,NNW,337,0.0,0.0,76,0.00,,,0.00,WUHU21623XXSP,2013-06-15 03:26:00,
2013-06-14 23:31:00,61.5,53.9,30.07,NNW,337,0.0,0.0,76,0.00,,,0.00,WUHU21623XXSP,2013-06-15 03:31:00,
2013-06-14 23:36:00,61.5,53.9,30.07,NNW,337,0.0,0.0,76,0.00,,,0.00,WUHU21623XXSP,2013-06-15 03:36:00,
2013-06-14 23:41:00,61.2,53.6,30.07,NNW,337,0.0,0.0,76,0.00,,,0.00,WUHU21623XXSP,2013-06-15 03:41:00,
2013-06-14 23:46:00,61.0,53.4,30.08,NNW,337,0.0,0.0,76,0.00,,,0.00,WUHU21623XXSP,2013-06-15 03:46:00,
2013-06-14 23:51:00,61.0,53.8,30.08,NNW,337,0.0,0.0,77,0.00,,,0.00,WUHU21623XXSP,2013-06-15 03:51:00,
2013-06-14 23:56:00,61.0,53.8,30.08,NNW,337,0.0,0.0,77,0.00,,,0.00,WUHU21623XXSP,2013-06-15 03:56:00,